Time,TemperatureF,DewpointF,PressureIn,WindDirection,WindDirectionDegrees,WindSpeedMPH,WindSpeedGustMPH,Humidity,HourlyPrecipIn,Conditions,Clouds,dailyrainin,SolarRadiationWatts/m^2,SoftwareType,DateUTC
2013-06-01 00:00:00,67.5,59.7,29.92,SSE,151,4.0,-999.0,76,0.00,,,0.00,0,WeatherHawk,2013-06-01 04:00:00,
2013-06-01 00:05:00,67.6,60.2,29.92,SE,126,5.0,-999.0,77,0.00,,,0.00,0,WeatherHawk,2013-06-01 04:05:00,
2013-06-01 00:10:00,67.7,60.6,29.91,SSE,155,4.0,-999.0,78,0.00,,,0.00,0,WeatherHawk,2013-06-01 04:10:00,
2013-06-01 00:15:00,67.8,60.7,29.92,SSW,195,1.0,-999.0,78,0.00,,,0.00,0,WeatherHawk,2013-06-01 04:15:00,
2013-06-01 00:20:00,68.4,61.3,29.91,SE,144,5.0,-999.0,78,0.00,,,0.00,0,WeatherHawk,2013-06-01 04:20:00,
2013-06-01 00:25:00,68.1,59.5,29.92,SW,218,4.0,-999.0,74,0.00,,,0.00,0,WeatherHawk,2013-06-01 04:25:00,
2013-06-01 00:30:00,68.2,58.8,29.91,SSW,192,3.0,-999.0,72,0.00,,,0.00,0,WeatherHawk,2013-06-01 04:30:00,
2013-06-01 00:35:00,67.9,58.5,29.91,SSE,150,2.0,-999.0,72,0.00,,,0.00,1,WeatherHawk,2013-06-01 04:35:00,
2013-06-01 00:40:00,68.2,59.6,29.91,South,175,3.0,-999.0,74,0.00,,,0.00,0,WeatherHawk,2013-06-01 04:40:00,
2013-06-01 00:45:00,68.2,60.0,29.91,SSE,154,4.0,-999.0,75,0.00,,,0.00,0,WeatherHawk,2013-06-01 04:45:00,
2013-06-01 00:50:00,68.1,59.9,29.91,South,185,2.0,-999.0,75,0.00,,,0.00,0,WeatherHawk,2013-06-01 04:50:00,
2013-06-01 00:55:00,68.1,59.9,29.91,SE,129,2.0,-999.0,75,0.00,,,0.00,0,WeatherHawk,2013-06-01 04:55:00,
2013-06-01 01:05:00,67.8,60.7,29.90,East,88,1.0,-999.0,78,0.00,,,0.00,0,WeatherHawk,2013-06-01 05:05:00,
2013-06-01 01:10:00,67.9,61.1,29.91,ENE,57,0.0,-999.0,79,0.00,,,0.00,0,WeatherHawk,2013-06-01 05:10:00,
2013-06-01 01:15:00,67.7,61.0,29.91,NE,56,2.0,-999.0,79,0.00,,,0.00,0,WeatherHawk,2013-06-01 05:15:00,
2013-06-01 01:20:00,67.9,61.5,29.91,NNE,15,0.0,-999.0,80,0.00,,,0.00,0,WeatherHawk,2013-06-01 05:20:00,
2013-06-01 01:25:00,67.8,61.4,29.91,WNW,290,0.0,-999.0,80,0.00,,,0.00,0,WeatherHawk,2013-06-01 05:25:00,
2013-06-01 01:30:00,67.7,61.7,29.90,ENE,60,0.0,-999.0,81,0.00,,,0.00,0,WeatherHawk,2013-06-01 05:30:00,
2013-06-01 01:35:00,69.3,63.6,29.90,East,94,5.0,-999.0,82,0.00,,,0.00,0,WeatherHawk,2013-06-01 05:35:00,
2013-06-01 01:40:00,68.5,61.0,29.90,West,273,1.0,-999.0,77,0.00,,,0.00,0,WeatherHawk,2013-06-01 05:40:00,
2013-06-01 01:45:00,69.6,61.3,29.90,South,184,2.0,-999.0,75,0.00,,,0.00,0,WeatherHawk,2013-06-01 05:45:00,
2013-06-01 01:55:00,68.5,57.9,29.89,SE,140,2.0,-999.0,69,0.00,,,0.00,0,WeatherHawk,2013-06-01 05:55:00,
2013-06-01 02:00:00,68.0,58.6,29.88,ESE,119,5.0,-999.0,72,0.00,,,0.00,0,WeatherHawk,2013-06-01 06:00:00,
2013-06-01 02:05:00,68.7,59.7,29.89,SE,134,2.0,-999.0,73,0.00,,,0.00,0,WeatherHawk,2013-06-01 06:05:00,
2013-06-01 02:10:00,68.4,58.6,29.89,SE,135,2.0,-999.0,71,0.00,,,0.00,0,WeatherHawk,2013-06-01 06:10:00,
2013-06-01 02:15:00,69.8,59.6,29.89,WSW,247,1.0,-999.0,70,0.00,,,0.00,0,WeatherHawk,2013-06-01 06:15:00,
2013-06-01 02:20:00,68.8,57.0,29.90,South,171,3.0,-999.0,66,0.00,,,0.00,0,WeatherHawk,2013-06-01 06:20:00,
2013-06-01 02:25:00,68.7,55.2,29.88,SSE,152,3.0,-999.0,62,0.00,,,0.00,0,WeatherHawk,2013-06-01 06:25:00,
2013-06-01 02:35:00,68.3,56.1,29.89,South,173,3.0,-999.0,65,0.00,,,0.00,0,WeatherHawk,2013-06-01 06:35:00,
2013-06-01 02:45:00,68.1,56.3,29.88,SE,130,3.0,-999.0,66,0.00,,,0.00,0,WeatherHawk,2013-06-01 06:45:00,
2013-06-01 02:50:00,68.0,56.6,29.88,ESE,117,2.0,-999.0,67,0.00,,,0.00,0,WeatherHawk,2013-06-01 06:50:00,
2013-06-01 03:00:00,68.0,57.4,29.88,SSE,150,2.0,-999.0,69,0.00,,,0.00,0,WeatherHawk,2013-06-01 07:00:00,
2013-06-01 03:09:00,67.7,58.4,29.87,SE,137,1.0,-999.0,72,0.00,,,0.00,0,WeatherHawk,2013-06-01 07:09:00,
2013-06-01 03:15:00,67.5,58.5,29.86,SE,129,0.0,-999.0,73,0.00,,,0.00,0,WeatherHawk,2013-06-01 07:15:00,
2013-06-01 03:20:00,67.5,59.3,29.87,ENE,64,2.0,-999.0,75,0.00,,,0.00,0,WeatherHawk,2013-06-01 07:20:00,
2013-06-01 03:25:00,67.1,59.3,29.86,ESE,116,0.0,-999.0,76,0.00,,,0.00,0,WeatherHawk,2013-06-01 07:25:00,
2013-06-01 03:30:00,67.0,59.9,29.86,ESE,115,0.0,-999.0,78,0.00,,,0.00,0,WeatherHawk,2013-06-01 07:30:00,
2013-06-01 03:35:00,67.0,60.7,29.87,SE,127,0.0,-999.0,80,0.00,,,0.00,0,WeatherHawk,2013-06-01 07:35:00,
2013-06-01 03:45:00,67.0,59.6,29.87,South,183,4.0,-999.0,77,0.00,,,0.00,0,WeatherHawk,2013-06-01 07:45:00,
2013-06-01 03:50:00,66.8,59.3,29.89,SE,136,5.0,-999.0,77,0.00,,,0.00,0,WeatherHawk,2013-06-01 07:50:00,
2013-06-01 04:00:00,66.8,57.5,29.88,ESE,106,6.0,-999.0,72,0.00,,,0.00,0,WeatherHawk,2013-06-01 08:00:00,
2013-06-01 04:10:00,66.9,55.2,29.88,ESE,119,5.0,-999.0,66,0.00,,,0.00,0,WeatherHawk,2013-06-01 08:10:00,
2013-06-01 04:20:00,67.0,48.2,29.89,SSE,162,6.0,-999.0,51,0.00,,,0.00,0,WeatherHawk,2013-06-01 08:20:00,
2013-06-01 04:25:00,66.7,48.6,29.89,SE,128,8.0,-999.0,52,0.00,,,0.00,0,WeatherHawk,2013-06-01 08:25:00,
2013-06-01 04:35:00,66.7,46.4,29.88,SE,141,8.0,-999.0,48,0.00,,,0.00,0,WeatherHawk,2013-06-01 08:35:00,
2013-06-01 04:45:00,66.5,46.2,29.88,SSE,158,11.0,-999.0,48,0.00,,,0.00,0,WeatherHawk,2013-06-01 08:45:00,
2013-06-01 04:50:00,65.7,47.6,29.90,SE,132,11.0,-999.0,52,0.00,,,0.00,0,WeatherHawk,2013-06-01 08:50:00,
2013-06-01 04:55:00,65.6,49.0,29.90,SSE,151,6.0,-999.0,55,0.00,,,0.00,0,WeatherHawk,2013-06-01 08:55:00,
2013-06-01 05:00:00,65.0,49.4,29.90,ENE,70,10.0,-999.0,57,0.00,,,0.00,0,WeatherHawk,2013-06-01 09:00:00,
2013-06-01 05:05:00,64.6,51.8,29.90,ESE,115,13.0,-999.0,63,0.00,,,0.00,0,WeatherHawk,2013-06-01 09:05:00,
2013-06-01 05:10:00,64.1,53.3,29.90,SSE,147,10.0,-999.0,68,0.00,,,0.00,0,WeatherHawk,2013-06-01 09:10:00,
2013-06-01 05:15:00,64.2,54.9,29.90,ESE,118,15.0,-999.0,72,0.00,,,0.00,0,WeatherHawk,2013-06-01 09:15:00,
2013-06-01 05:20:00,64.0,55.9,29.89,SSE,162,10.0,-999.0,75,0.00,,,0.00,0,WeatherHawk,2013-06-01 09:20:00,
2013-06-01 05:25:00,64.4,57.0,29.90,SE,128,4.0,-999.0,77,0.00,,,0.00,0,WeatherHawk,2013-06-01 09:25:00,
2013-06-01 05:35:00,64.0,57.4,29.90,SE,142,10.0,-999.0,79,0.00,,,0.00,1,WeatherHawk,2013-06-01 09:35:00,
2013-06-01 05:40:00,64.5,58.2,29.89,East,85,10.0,-999.0,80,0.00,,,0.00,0,WeatherHawk,2013-06-01 09:40:00,
2013-06-01 05:50:00,64.5,58.5,29.89,SE,124,6.0,-999.0,81,0.00,,,0.00,0,WeatherHawk,2013-06-01 09:50:00,
2013-06-01 05:55:00,64.2,58.2,29.89,SE,127,11.0,-999.0,81,0.00,,,0.00,0,WeatherHawk,2013-06-01 09:55:00,
2013-06-01 06:00:00,63.9,58.0,29.87,East,80,1.0,-999.0,81,0.00,,,0.00,0,WeatherHawk,2013-06-01 10:00:00,
2013-06-01 06:05:00,64.1,58.1,29.87,East,79,5.0,-999.0,81,0.00,,,0.00,1,WeatherHawk,2013-06-01 10:05:00,
2013-06-01 06:10:00,64.2,59.0,29.87,SE,129,2.0,-999.0,83,0.00,,,0.00,1,WeatherHawk,2013-06-01 10:10:00,
2013-06-01 06:15:00,64.1,58.9,29.85,SSE,153,3.0,-999.0,83,0.00,,,0.00,3,WeatherHawk,2013-06-01 10:15:00,
2013-06-01 06:20:00,63.6,58.4,29.85,SE,135,5.0,-999.0,83,0.00,,,0.00,4,WeatherHawk,2013-06-01 10:20:00,
2013-06-01 06:25:00,63.3,58.7,29.85,SE,143,1.0,-999.0,85,0.00,,,0.00,11,WeatherHawk,2013-06-01 10:25:00,
2013-06-01 06:30:00,63.4,59.1,29.84,East,101,4.0,-999.0,86,0.00,,,0.00,24,WeatherHawk,2013-06-01 10:30:00,
2013-06-01 06:35:00,63.5,59.8,29.85,SE,139,4.0,-999.0,88,0.00,,,0.00,27,WeatherHawk,2013-06-01 10:35:00,
2013-06-01 06:40:00,63.3,60.3,29.85,ESE,106,4.0,-999.0,90,0.00,,,0.00,29,WeatherHawk,2013-06-01 10:40:00,
2013-06-01 06:45:00,63.3,60.7,29.86,SE,130,4.0,-999.0,91,0.00,,,0.00,30,WeatherHawk,2013-06-01 10:45:00,
2013-06-01 06:50:00,63.4,61.1,29.86,ESE,103,6.0,-999.0,92,0.00,,,0.00,40,WeatherHawk,2013-06-01 10:50:00,
2013-06-01 06:55:00,63.5,61.4,29.87,SE,138,8.0,-999.0,93,0.00,,,0.00,50,WeatherHawk,2013-06-01 10:55:00,
2013-06-01 07:00:00,63.5,61.4,29.87,East,99,9.0,-999.0,93,0.00,,,0.00,45,WeatherHawk,2013-06-01 11:00:00,
2013-06-01 07:05:00,63.9,61.9,29.87,ESE,119,6.0,-999.0,93,0.00,,,0.00,62,WeatherHawk,2013-06-01 11:05:00,
2013-06-01 07:10:00,64.1,61.7,29.87,ENE,78,7.0,-999.0,92,0.00,,,0.00,55,WeatherHawk,2013-06-01 11:10:00,
2013-06-01 07:15:00,64.1,61.1,29.88,SE,133,7.0,-999.0,90,0.00,,,0.00,65,WeatherHawk,2013-06-01 11:15:00,
2013-06-01 07:25:00,64.0,60.0,29.87,SSE,159,10.0,-999.0,87,0.00,,,0.00,98,WeatherHawk,2013-06-01 11:25:00,
2013-06-01 07:30:00,64.3,60.1,29.87,ESE,107,11.0,-999.0,86,0.00,,,0.00,109,WeatherHawk,2013-06-01 11:30:00,
2013-06-01 07:35:00,64.8,59.2,29.87,SSE,149,3.0,-999.0,82,0.00,,,0.00,126,WeatherHawk,2013-06-01 11:35:00,
2013-06-01 07:40:00,65.2,58.2,29.87,South,183,6.0,-999.0,78,0.00,,,0.00,93,WeatherHawk,2013-06-01 11:40:00,
2013-06-01 07:50:00,64.8,54.8,29.87,ESE,116,10.0,-999.0,70,0.00,,,0.00,96,WeatherHawk,2013-06-01 11:50:00,
2013-06-01 07:55:00,64.6,53.4,29.86,East,92,8.0,-999.0,67,0.00,,,0.00,87,WeatherHawk,2013-06-01 11:55:00,
2013-06-01 08:00:00,64.8,52.8,29.87,SE,141,6.0,-999.0,65,0.00,,,0.00,95,WeatherHawk,2013-06-01 12:00:00,
2013-06-01 08:05:00,65.2,51.8,29.85,East,96,9.0,-999.0,62,0.00,,,0.00,89,WeatherHawk,2013-06-01 12:05:00,
2013-06-01 08:10:00,65.0,50.8,29.85,SE,125,5.0,-999.0,60,0.00,,,0.00,103,WeatherHawk,2013-06-01 12:10:00,
2013-06-01 08:15:00,65.3,50.1,29.86,East,85,10.0,-999.0,58,0.00,,,0.00,96,WeatherHawk,2013-06-01 12:15:00,
2013-06-01 08:20:00,64.7,48.6,29.85,East,80,6.0,-999.0,56,0.00,,,0.00,100,WeatherHawk,2013-06-01 12:20:00,
2013-06-01 08:25:00,64.9,48.9,29.84,SSE,158,8.0,-999.0,56,0.00,,,0.00,116,WeatherHawk,2013-06-01 12:25:00,
2013-06-01 08:30:00,65.1,49.1,29.84,East,81,7.0,-999.0,56,0.00,,,0.00,150,WeatherHawk,2013-06-01 12:30:00,
2013-06-01 08:35:00,65.3,48.8,29.85,SE,126,6.0,-999.0,55,0.00,,,0.00,194,WeatherHawk,2013-06-01 12:35:00,
2013-06-01 08:40:00,66.1,49.4,29.84,ESE,106,6.0,-999.0,55,0.00,,,0.00,214,WeatherHawk,2013-06-01 12:40:00,
2013-06-01 08:45:00,65.6,48.0,29.83,East,96,9.0,-999.0,53,0.00,,,0.00,209,WeatherHawk,2013-06-01 12:45:00,
2013-06-01 08:50:00,66.2,48.5,29.83,SSE,162,6.0,-999.0,53,0.00,,,0.00,214,WeatherHawk,2013-06-01 12:50:00,
2013-06-01 08:55:00,66.7,47.5,29.83,ESE,110,14.0,-999.0,50,0.00,,,0.00,286,WeatherHawk,2013-06-01 12:55:00,
2013-06-01 09:00:00,66.4,47.2,29.82,ESE,107,8.0,-999.0,50,0.00,,,0.00,265,WeatherHawk,2013-06-01 13:00:00,
2013-06-01 09:05:00,67.0,47.2,29.82,SSE,155,6.0,-999.0,49,0.00,,,0.00,252,WeatherHawk,2013-06-01 13:05:00,
2013-06-01 09:10:00,66.8,45.9,29.82,SE,146,10.0,-999.0,47,0.00,,,0.00,219,WeatherHawk,2013-06-01 13:10:00,
2013-06-01 09:15:00,66.6,45.7,29.82,SSE,150,9.0,-999.0,47,0.00,,,0.00,168,WeatherHawk,2013-06-01 13:15:00,
2013-06-01 09:20:00,67.1,46.2,29.84,SSE,147,9.0,-999.0,47,0.00,,,0.00,156,WeatherHawk,2013-06-01 13:20:00,
2013-06-01 09:25:00,66.8,45.9,29.84,ESE,119,10.0,-999.0,47,0.00,,,0.00,193,WeatherHawk,2013-06-01 13:25:00,
2013-06-01 09:30:00,67.2,45.7,29.84,SSE,158,8.0,-999.0,46,0.00,,,0.00,217,WeatherHawk,2013-06-01 13:30:00,
2013-06-01 09:40:00,68.1,45.3,29.83,South,175,8.0,-999.0,44,0.00,,,0.00,251,WeatherHawk,2013-06-01 13:40:00,
2013-06-01 09:45:00,69.1,43.7,29.83,East,94,7.0,-999.0,40,0.00,,,0.00,400,WeatherHawk,2013-06-01 13:45:00,
2013-06-01 09:55:00,69.0,44.3,29.84,South,178,6.0,-999.0,41,0.00,,,0.00,253,WeatherHawk,2013-06-01 13:55:00,
2013-06-01 10:00:00,68.9,43.6,29.83,ESE,110,9.0,-999.0,40,0.00,,,0.00,270,WeatherHawk,2013-06-01 14:00:00,
2013-06-01 10:05:00,69.2,43.8,29.84,East,80,7.0,-999.0,40,0.00,,,0.00,239,WeatherHawk,2013-06-01 14:05:00,
2013-06-01 10:10:00,69.3,43.9,29.84,East,92,8.0,-999.0,40,0.00,,,0.00,183,WeatherHawk,2013-06-01 14:10:00,
2013-06-01 10:15:00,68.6,43.3,29.84,SE,130,12.0,-999.0,40,0.00,,,0.00,204,WeatherHawk,2013-06-01 14:15:00,
2013-06-01 10:20:00,68.5,43.2,29.84,ESE,123,15.0,-999.0,40,0.00,,,0.00,161,WeatherHawk,2013-06-01 14:20:00,
2013-06-01 10:30:00,68.2,43.6,29.86,SSW,210,7.0,-999.0,41,0.00,,,0.00,116,WeatherHawk,2013-06-01 14:30:00,
2013-06-01 10:39:00,68.0,42.8,29.86,SSW,202,7.0,-999.0,40,0.00,,,0.00,264,WeatherHawk,2013-06-01 14:39:00,
2013-06-01 10:45:00,68.3,41.7,29.85,SSE,164,8.0,-999.0,38,0.00,,,0.00,252,WeatherHawk,2013-06-01 14:45:00,
2013-06-01 10:55:00,68.9,42.9,29.86,ESE,104,8.0,-999.0,39,0.00,,,0.00,243,WeatherHawk,2013-06-01 14:55:00,
2013-06-01 11:00:00,68.9,42.3,29.86,South,175,5.0,-999.0,38,0.00,,,0.00,283,WeatherHawk,2013-06-01 15:00:00,
2013-06-01 11:05:00,70.2,42.0,29.85,South,186,7.0,-999.0,36,0.00,,,0.00,368,WeatherHawk,2013-06-01 15:05:00,
2013-06-01 11:10:00,69.9,40.3,29.87,South,179,5.0,-999.0,34,0.00,,,0.00,364,WeatherHawk,2013-06-01 15:10:00,
2013-06-01 11:15:00,70.3,39.9,29.86,SE,140,7.0,-999.0,33,0.00,,,0.00,335,WeatherHawk,2013-06-01 15:15:00,
2013-06-01 11:20:00,68.8,38.5,29.87,South,186,7.0,-999.0,33,0.00,,,0.00,255,WeatherHawk,2013-06-01 15:20:00,
2013-06-01 11:25:00,70.2,40.5,29.87,SE,144,7.0,-999.0,34,0.00,,,0.00,221,WeatherHawk,2013-06-01 15:25:00,
2013-06-01 11:30:00,71.4,40.0,29.87,SE,145,6.0,-999.0,32,0.00,,,0.00,1166,WeatherHawk,2013-06-01 15:30:00,
2013-06-01 11:35:00,70.0,30.5,29.87,South,183,7.0,-999.0,23,0.00,,,0.00,485,WeatherHawk,2013-06-01 15:35:00,
2013-06-01 11:40:00,69.7,31.3,29.87,West,281,12.0,-999.0,24,0.00,,,0.00,506,WeatherHawk,2013-06-01 15:40:00,
2013-06-01 11:45:00,69.9,30.4,29.87,SSE,168,11.0,-999.0,23,0.00,,,0.00,476,WeatherHawk,2013-06-01 15:45:00,
2013-06-01 11:50:00,74.1,32.8,29.87,ESE,112,7.0,-999.0,22,0.00,,,0.00,804,WeatherHawk,2013-06-01 15:50:00,
2013-06-01 11:55:00,75.4,33.9,29.88,SE,129,4.0,-999.0,22,0.00,,,0.00,893,WeatherHawk,2013-06-01 15:55:00,
2013-06-01 12:00:00,72.2,28.9,29.87,SSE,154,7.0,-999.0,20,0.00,,,0.00,912,WeatherHawk,2013-06-01 16:00:00,
2013-06-01 12:05:00,72.5,26.6,29.88,SSE,154,9.0,-999.0,18,0.00,,,0.00,284,WeatherHawk,2013-06-01 16:05:00,
2013-06-01 12:10:00,72.0,24.8,29.87,SSE,166,15.0,-999.0,17,0.00,,,0.00,812,WeatherHawk,2013-06-01 16:10:00,
2013-06-01 12:15:00,74.4,29.5,29.87,SE,144,10.0,-999.0,19,0.00,,,0.00,1020,WeatherHawk,2013-06-01 16:15:00,
2013-06-01 12:20:00,73.7,27.6,29.87,SE,141,9.0,-999.0,18,0.00,,,0.00,866,WeatherHawk,2013-06-01 16:20:00,
2013-06-01 12:25:00,73.1,24.3,29.88,South,181,5.0,-999.0,16,0.00,,,0.00,707,WeatherHawk,2013-06-01 16:25:00,
2013-06-01 12:30:00,73.6,27.5,29.87,SSE,161,6.0,-999.0,18,0.00,,,0.00,710,WeatherHawk,2013-06-01 16:30:00,
2013-06-01 12:35:00,74.0,25.0,29.87,SE,137,9.0,-999.0,16,0.00,,,0.00,577,WeatherHawk,2013-06-01 16:35:00,
2013-06-01 12:40:00,73.3,24.4,29.87,South,181,10.0,-999.0,16,0.00,,,0.00,652,WeatherHawk,2013-06-01 16:40:00,
2013-06-01 12:50:00,74.7,22.3,29.86,SE,130,12.0,-999.0,14,0.00,,,0.00,710,WeatherHawk,2013-06-01 16:50:00,
2013-06-01 12:55:00,74.6,22.2,29.87,SSW,196,17.0,-999.0,14,0.00,,,0.00,927,WeatherHawk,2013-06-01 16:55:00,
2013-06-01 13:00:00,74.1,20.1,29.86,SSE,150,11.0,-999.0,13,0.00,,,0.00,253,WeatherHawk,2013-06-01 17:00:00,
2013-06-01 13:05:00,75.0,24.2,29.86,SSE,153,12.0,-999.0,15,0.00,,,0.00,636,WeatherHawk,2013-06-01 17:05:00,
2013-06-01 13:10:00,76.2,19.9,29.86,ESE,115,14.0,-999.0,12,0.00,,,0.00,919,WeatherHawk,2013-06-01 17:10:00,
2013-06-01 13:15:00,75.0,20.8,29.86,SE,132,11.0,-999.0,13,0.00,,,0.00,423,WeatherHawk,2013-06-01 17:15:00,
2013-06-01 13:25:00,76.9,25.8,29.86,East,97,11.0,-999.0,15,0.00,,,0.00,1074,WeatherHawk,2013-06-01 17:25:00,
2013-06-01 13:30:00,76.4,20.0,29.86,South,175,13.0,-999.0,12,0.00,,,0.00,387,WeatherHawk,2013-06-01 17:30:00,
2013-06-01 13:35:00,77.6,18.9,29.86,ESE,122,10.0,-999.0,11,0.00,,,0.00,968,WeatherHawk,2013-06-01 17:35:00,
2013-06-01 13:40:00,77.2,20.7,29.86,SE,145,6.0,-999.0,12,0.00,,,0.00,318,WeatherHawk,2013-06-01 17:40:00,
2013-06-01 13:45:00,77.2,18.6,29.85,SE,138,12.0,-999.0,11,0.00,,,0.00,324,WeatherHawk,2013-06-01 17:45:00,
2013-06-01 13:50:00,78.2,14.8,29.86,SE,130,10.0,-999.0,9,0.00,,,0.00,656,WeatherHawk,2013-06-01 17:50:00,
2013-06-01 13:55:00,76.0,13.1,29.85,SSE,154,8.0,-999.0,9,0.00,,,0.00,651,WeatherHawk,2013-06-01 17:55:00,
2013-06-01 14:00:00,77.5,14.3,29.85,SE,146,9.0,-999.0,9,0.00,,,0.00,258,WeatherHawk,2013-06-01 18:00:00,
2013-06-01 14:05:00,76.8,16.1,29.84,SE,140,10.0,-999.0,10,0.00,,,0.00,406,WeatherHawk,2013-06-01 18:05:00,
2013-06-01 14:10:00,76.8,20.4,29.85,South,169,11.0,-999.0,12,0.00,,,0.00,983,WeatherHawk,2013-06-01 18:10:00,
2013-06-01 14:20:00,76.0,17.7,29.85,SE,135,16.0,-999.0,11,0.00,,,0.00,254,WeatherHawk,2013-06-01 18:20:00,
2013-06-01 14:25:00,76.6,22.1,29.85,East,97,13.0,-999.0,13,0.00,,,0.00,1073,WeatherHawk,2013-06-01 18:25:00,
2013-06-01 14:30:00,77.4,16.6,29.85,SSE,152,12.0,-999.0,10,0.00,,,0.00,913,WeatherHawk,2013-06-01 18:30:00,
2013-06-01 14:40:00,76.4,15.8,29.85,SE,126,13.0,-999.0,10,0.00,,,0.00,271,WeatherHawk,2013-06-01 18:40:00,
2013-06-01 14:45:00,76.0,21.6,29.85,SSE,160,9.0,-999.0,13,0.00,,,0.00,226,WeatherHawk,2013-06-01 18:45:00,
2013-06-01 14:55:00,76.8,20.4,29.86,SE,139,9.0,-999.0,12,0.00,,,0.00,357,WeatherHawk,2013-06-01 18:55:00,
2013-06-01 15:00:00,75.8,17.6,29.85,SSW,209,15.0,-999.0,11,0.00,,,0.00,337,WeatherHawk,2013-06-01 19:00:00,
2013-06-01 15:05:00,77.5,18.9,29.85,SE,126,9.0,-999.0,11,0.00,,,0.00,394,WeatherHawk,2013-06-01 19:05:00,
2013-06-01 15:10:00,77.9,23.1,29.85,SSE,157,7.0,-999.0,13,0.00,,,0.00,490,WeatherHawk,2013-06-01 19:10:00,
2013-06-01 15:15:00,78.7,17.6,29.85,ESE,113,9.0,-999.0,10,0.00,,,0.00,677,WeatherHawk,2013-06-01 19:15:00,
2013-06-01 15:20:00,76.9,18.4,29.84,South,179,9.0,-999.0,11,0.00,,,0.00,705,WeatherHawk,2013-06-01 19:20:00,
2013-06-01 15:25:00,78.5,19.6,29.85,SSE,162,9.0,-999.0,11,0.00,,,0.00,588,WeatherHawk,2013-06-01 19:25:00,
2013-06-01 15:30:00,77.2,18.6,29.85,SE,127,11.0,-999.0,11,0.00,,,0.00,365,WeatherHawk,2013-06-01 19:30:00,
2013-06-01 15:35:00,77.4,16.6,29.85,South,180,6.0,-999.0,10,0.00,,,0.00,275,WeatherHawk,2013-06-01 19:35:00,
2013-06-01 15:40:00,76.7,18.3,29.85,SE,125,6.0,-999.0,11,0.00,,,0.00,240,WeatherHawk,2013-06-01 19:40:00,
2013-06-01 15:45:00,76.0,17.7,29.85,SSE,160,11.0,-999.0,11,0.00,,,0.00,191,WeatherHawk,2013-06-01 19:45:00,
2013-06-01 15:55:00,76.5,18.1,29.83,SE,145,10.0,-999.0,11,0.00,,,0.00,468,WeatherHawk,2013-06-01 19:55:00,
2013-06-01 16:05:00,79.4,24.3,29.85,SSE,165,3.0,-999.0,13,0.00,,,0.00,750,WeatherHawk,2013-06-01 20:05:00,
2013-06-01 16:10:00,78.4,19.6,29.84,SSE,150,8.0,-999.0,11,0.00,,,0.00,391,WeatherHawk,2013-06-01 20:10:00,
2013-06-01 16:15:00,77.5,18.9,29.85,SSE,155,9.0,-999.0,11,0.00,,,0.00,356,WeatherHawk,2013-06-01 20:15:00,
2013-06-01 16:20:00,77.0,20.5,29.84,ESE,117,7.0,-999.0,12,0.00,,,0.00,333,WeatherHawk,2013-06-01 20:20:00,
2013-06-01 16:25:00,76.7,22.2,29.84,SE,128,7.0,-999.0,13,0.00,,,0.00,317,WeatherHawk,2013-06-01 20:25:00,
2013-06-01 16:30:00,75.9,19.7,29.85,SE,128,15.0,-999.0,12,0.00,,,0.00,324,WeatherHawk,2013-06-01 20:30:00,
2013-06-01 16:35:00,76.5,22.0,29.85,East,92,10.0,-999.0,13,0.00,,,0.00,299,WeatherHawk,2013-06-01 20:35:00,
2013-06-01 16:40:00,76.2,23.5,29.84,SSE,154,11.0,-999.0,14,0.00,,,0.00,248,WeatherHawk,2013-06-01 20:40:00,
2013-06-01 16:45:00,76.0,23.3,29.85,SE,126,10.0,-999.0,14,0.00,,,0.00,239,WeatherHawk,2013-06-01 20:45:00,
2013-06-01 16:50:00,76.0,23.4,29.85,South,187,7.0,-999.0,14,0.00,,,0.00,234,WeatherHawk,2013-06-01 20:50:00,
2013-06-01 16:55:00,75.8,24.8,29.85,SSE,160,7.0,-999.0,15,0.00,,,0.00,246,WeatherHawk,2013-06-01 20:55:00,
2013-06-01 17:00:00,75.8,23.2,29.84,SE,125,13.0,-999.0,14,0.00,,,0.00,302,WeatherHawk,2013-06-01 21:00:00,
2013-06-01 17:05:00,76.5,22.0,29.84,South,176,8.0,-999.0,13,0.00,,,0.00,347,WeatherHawk,2013-06-01 21:05:00,
2013-06-01 17:10:00,75.7,21.4,29.84,SE,135,12.0,-999.0,13,0.00,,,0.00,250,WeatherHawk,2013-06-01 21:10:00,
2013-06-01 17:15:00,76.1,23.5,29.83,East,97,9.0,-999.0,14,0.00,,,0.00,316,WeatherHawk,2013-06-01 21:15:00,
2013-06-01 17:20:00,76.3,23.6,29.84,SE,136,6.0,-999.0,14,0.00,,,0.00,314,WeatherHawk,2013-06-01 21:20:00,
2013-06-01 17:25:00,76.0,23.4,29.84,SW,215,7.0,-999.0,14,0.00,,,0.00,141,WeatherHawk,2013-06-01 21:25:00,
2013-06-01 17:30:00,75.8,24.9,29.84,South,184,6.0,-999.0,15,0.00,,,0.00,167,WeatherHawk,2013-06-01 21:30:00,
2013-06-01 17:35:00,76.1,25.1,29.85,East,84,7.0,-999.0,15,0.00,,,0.00,266,WeatherHawk,2013-06-01 21:35:00,
2013-06-01 17:40:00,75.3,22.8,29.84,SE,130,10.0,-999.0,14,0.00,,,0.00,282,WeatherHawk,2013-06-01 21:40:00,
2013-06-01 17:45:00,75.2,22.7,29.85,South,186,11.0,-999.0,14,0.00,,,0.00,222,WeatherHawk,2013-06-01 21:45:00,
2013-06-01 17:50:00,75.0,24.2,29.85,SE,124,13.0,-999.0,15,0.00,,,0.00,222,WeatherHawk,2013-06-01 21:50:00,
2013-06-01 17:55:00,74.5,23.8,29.84,SE,142,12.0,-999.0,15,0.00,,,0.00,180,WeatherHawk,2013-06-01 21:55:00,
2013-06-01 18:00:00,75.0,27.3,29.84,ESE,117,6.0,-999.0,17,0.00,,,0.00,182,WeatherHawk,2013-06-01 22:00:00,
2013-06-01 18:05:00,74.5,26.8,29.84,SE,142,11.0,-999.0,17,0.00,,,0.00,187,WeatherHawk,2013-06-01 22:05:00,
2013-06-01 18:15:00,74.1,27.9,29.84,SSE,159,14.0,-999.0,18,0.00,,,0.00,116,WeatherHawk,2013-06-01 22:15:00,
2013-06-01 18:25:00,73.6,27.4,29.84,SE,126,5.0,-999.0,18,0.00,,,0.00,68,WeatherHawk,2013-06-01 22:25:00,
2013-06-01 18:30:00,73.2,28.5,29.83,SE,132,7.0,-999.0,19,0.00,,,0.00,85,WeatherHawk,2013-06-01 22:30:00,
2013-06-01 18:35:00,73.3,28.6,29.84,ESE,120,7.0,-999.0,19,0.00,,,0.00,93,WeatherHawk,2013-06-01 22:35:00,
2013-06-01 18:40:00,73.1,28.4,29.84,ESE,119,7.0,-999.0,19,0.00,,,0.00,84,WeatherHawk,2013-06-01 22:40:00,
2013-06-01 18:45:00,72.6,27.9,29.84,SSW,198,9.0,-999.0,19,0.00,,,0.00,64,WeatherHawk,2013-06-01 22:45:00,
2013-06-01 18:50:00,72.2,27.6,29.83,SE,131,8.0,-999.0,19,0.00,,,0.00,59,WeatherHawk,2013-06-01 22:50:00,
2013-06-01 18:55:00,71.9,28.6,29.83,ESE,120,12.0,-999.0,20,0.00,,,0.00,54,WeatherHawk,2013-06-01 22:55:00,
2013-06-01 19:05:00,72.0,28.8,29.83,SE,140,8.0,-999.0,20,0.00,,,0.00,57,WeatherHawk,2013-06-01 23:05:00,
2013-06-01 19:10:00,71.5,30.7,29.84,SSE,151,9.0,-999.0,22,0.00,,,0.00,51,WeatherHawk,2013-06-01 23:10:00,
2013-06-01 19:15:00,71.3,30.5,29.84,SSE,161,9.0,-999.0,22,0.00,,,0.00,49,WeatherHawk,2013-06-01 23:15:00,
2013-06-01 19:25:00,70.8,32.2,29.84,SSW,203,7.0,-999.0,24,0.00,,,0.00,35,WeatherHawk,2013-06-01 23:25:00,
2013-06-01 19:30:00,70.7,32.2,29.84,SSE,149,7.0,-999.0,24,0.00,,,0.00,37,WeatherHawk,2013-06-01 23:30:00,
2013-06-01 19:35:00,70.7,32.2,29.84,SSE,153,5.0,-999.0,24,0.00,,,0.00,27,WeatherHawk,2013-06-01 23:35:00,
2013-06-01 19:45:00,71.5,34.8,29.83,SE,130,5.0,-999.0,26,0.00,,,0.00,21,WeatherHawk,2013-06-01 23:45:00,
2013-06-01 19:50:00,70.2,33.7,29.83,SE,130,5.0,-999.0,26,0.00,,,0.00,8,WeatherHawk,2013-06-01 23:50:00,
2013-06-01 20:00:00,70.1,34.5,29.83,South,173,4.0,-999.0,27,0.00,,,0.00,6,WeatherHawk,2013-06-02 00:00:00,
2013-06-01 20:05:00,69.8,35.2,29.83,SSE,164,3.0,-999.0,28,0.00,,,0.00,6,WeatherHawk,2013-06-02 00:05:00,
2013-06-01 20:10:00,70.0,35.4,29.84,SSW,195,4.0,-999.0,28,0.00,,,0.00,7,WeatherHawk,2013-06-02 00:10:00,
2013-06-01 20:15:00,71.0,36.2,29.84,SSE,156,3.0,-999.0,28,0.00,,,0.00,6,WeatherHawk,2013-06-02 00:15:00,
2013-06-01 20:20:00,69.8,36.1,29.83,SE,128,5.0,-999.0,29,0.00,,,0.00,6,WeatherHawk,2013-06-02 00:20:00,
2013-06-01 20:30:00,69.8,36.9,29.83,SE,137,4.0,-999.0,30,0.00,,,0.00,6,WeatherHawk,2013-06-02 00:30:00,
2013-06-01 20:40:00,69.6,38.4,29.83,SE,143,3.0,-999.0,32,0.00,,,0.00,4,WeatherHawk,2013-06-02 00:40:00,
2013-06-01 20:45:00,69.1,38.0,29.83,South,180,3.0,-999.0,32,0.00,,,0.00,6,WeatherHawk,2013-06-02 00:45:00,
2013-06-01 20:50:00,70.0,38.8,29.82,SE,131,4.0,-999.0,32,0.00,,,0.00,9,WeatherHawk,2013-06-02 00:50:00,
2013-06-01 21:00:00,68.9,38.6,29.82,SE,130,5.0,-999.0,33,0.00,,,0.00,4,WeatherHawk,2013-06-02 01:00:00,
2013-06-01 21:10:00,68.6,39.1,29.82,ESE,115,6.0,-999.0,34,0.00,,,0.00,2,WeatherHawk,2013-06-02 01:10:00,
2013-06-01 21:20:00,68.4,39.7,29.81,East,84,6.0,-999.0,35,0.00,,,0.00,1,WeatherHawk,2013-06-02 01:20:00,
2013-06-01 21:25:00,68.4,39.7,29.81,ESE,119,5.0,-999.0,35,0.00,,,0.00,0,WeatherHawk,2013-06-02 01:25:00,
2013-06-01 21:35:00,68.2,39.5,29.80,ESE,115,4.0,-999.0,35,0.00,,,0.00,0,WeatherHawk,2013-06-02 01:35:00,
2013-06-01 21:40:00,68.4,39.7,29.81,SSE,164,2.0,-999.0,35,0.00,,,0.00,0,WeatherHawk,2013-06-02 01:40:00,
2013-06-01 21:45:00,68.0,40.0,29.81,East,84,5.0,-999.0,36,0.00,,,0.00,0,WeatherHawk,2013-06-02 01:45:00,
2013-06-01 21:55:00,67.7,41.2,29.81,SE,126,6.0,-999.0,38,0.00,,,0.00,0,WeatherHawk,2013-06-02 01:55:00,
2013-06-01 22:05:00,67.5,41.7,29.81,South,185,3.0,-999.0,39,0.00,,,0.00,0,WeatherHawk,2013-06-02 02:05:00,
2013-06-01 22:10:00,67.5,42.3,29.81,East,99,6.0,-999.0,40,0.00,,,0.00,0,WeatherHawk,2013-06-02 02:10:00,
2013-06-01 22:15:00,67.2,42.7,29.81,ESE,107,4.0,-999.0,41,0.00,,,0.00,0,WeatherHawk,2013-06-02 02:15:00,
2013-06-01 22:20:00,67.3,43.4,29.81,East,92,5.0,-999.0,42,0.00,,,0.00,1,WeatherHawk,2013-06-02 02:20:00,
2013-06-01 22:25:00,67.0,43.8,29.81,East,86,5.0,-999.0,43,0.00,,,0.00,0,WeatherHawk,2013-06-02 02:25:00,
2013-06-01 22:30:00,66.9,44.2,29.80,East,90,6.0,-999.0,44,0.00,,,0.00,0,WeatherHawk,2013-06-02 02:30:00,
2013-06-01 22:35:00,66.7,45.2,29.81,SSE,151,4.0,-999.0,46,0.00,,,0.00,0,WeatherHawk,2013-06-02 02:35:00,
2013-06-01 22:40:00,66.5,45.1,29.81,East,100,4.0,-999.0,46,0.00,,,0.00,0,WeatherHawk,2013-06-02 02:40:00,
2013-06-01 22:45:00,66.7,45.2,29.80,SSE,152,3.0,-999.0,46,0.00,,,0.00,0,WeatherHawk,2013-06-02 02:45:00,
2013-06-01 22:50:00,66.6,45.2,29.80,South,171,4.0,-999.0,46,0.00,,,0.00,0,WeatherHawk,2013-06-02 02:50:00,
2013-06-01 22:55:00,66.5,45.7,29.79,SE,136,4.0,-999.0,47,0.00,,,0.00,0,WeatherHawk,2013-06-02 02:55:00,
2013-06-01 23:00:00,66.3,45.4,29.79,SE,126,4.0,-999.0,47,0.00,,,0.00,0,WeatherHawk,2013-06-02 03:00:00,
2013-06-01 23:05:00,66.5,46.7,29.79,ESE,108,4.0,-999.0,49,0.00,,,0.00,0,WeatherHawk,2013-06-02 03:05:00,
2013-06-01 23:10:00,65.9,45.7,29.78,ESE,123,3.0,-999.0,48,0.00,,,0.00,0,WeatherHawk,2013-06-02 03:10:00,
2013-06-01 23:15:00,65.9,46.7,29.78,ESE,114,1.0,-999.0,50,0.00,,,0.00,0,WeatherHawk,2013-06-02 03:15:00,
2013-06-01 23:20:00,65.6,47.0,29.78,SE,143,4.0,-999.0,51,0.00,,,0.00,0,WeatherHawk,2013-06-02 03:20:00,
2013-06-01 23:25:00,65.8,47.2,29.78,SE,132,3.0,-999.0,51,0.00,,,0.00,0,WeatherHawk,2013-06-02 03:25:00,
2013-06-01 23:30:00,65.5,47.4,29.77,SE,128,3.0,-999.0,52,0.00,,,0.00,0,WeatherHawk,2013-06-02 03:30:00,
2013-06-01 23:35:00,65.3,47.7,29.78,East,91,4.0,-999.0,53,0.00,,,0.00,0,WeatherHawk,2013-06-02 03:35:00,
2013-06-01 23:45:00,64.8,48.8,29.77,East,95,1.0,-999.0,56,0.00,,,0.00,0,WeatherHawk,2013-06-02 03:45:00,
2013-06-01 23:50:00,64.9,49.7,29.78,ESE,109,3.0,-999.0,58,0.00,,,0.00,0,WeatherHawk,2013-06-02 03:50:00,